x

8551762 - Delaware City, De (deld1) Weather Station

6:54pm - Thu 26th Mar 2015 All times are EDT. -4 hours from GMT.

  • Wind
    13mph, 18mph gusts
  • Sea Temp 44°f
  • Air Temp 67°f
  • Sea Pressure 1001.9mb
  • 8551762 - Delaware City, De
  • 8551762 - Delaware City, De

More Historic Weather Station data

Upgrade to MSW Pro to gain access to the past 30 days of data for over 8000 Wavebouys and Weather Stations around the globe.

Join Pro

Comparision Forecast

View Surf forecast
   
Thu 03/26 6:54pm 13 18 mph 1001.9mb 44f 67f
6:48pm 10 14 mph 1001.9mb 44f 67f
6:42pm 9 14 mph 1002.1mb 44f 68f
6:36pm 9 17 mph 1002.2mb 44f 68f
6:30pm 11 20 mph 1002.1mb 44f 68f
6:24pm 15 22 mph 1002mb 44f 68f
6:18pm 11 17 mph 1002.3mb 44f 69f
6:12pm 11 21 mph 1002.3mb 44f 69f
6:06pm 10 18 mph 1002.4mb 44f 69f
6:00pm 11 20 mph 1002.6mb 44f 69f
5:54pm 14 18 mph 1002.6mb 44f 69f
5:48pm 11 18 mph 1002.6mb 44f 69f
5:42pm 13 17 mph 1002.8mb 44f 69f
5:36pm 14 18 mph 1002.9mb 44f 68f
5:30pm 11 24 mph 1002.9mb 44f 68f
5:24pm 14 22 mph 1003mb 44f 68f
5:18pm 15 23 mph 1003.1mb 44f 67f
5:12pm 13 17 mph 1003.2mb 44f 68f
5:06pm 15 21 mph 1003.5mb 44f 68f
5:00pm 10 18 mph 1003.7mb 44f 68f
4:54pm 14 21 mph 1003.9mb 44f 68f
4:48pm 13 22 mph 1003.9mb 44f 69f
4:42pm 15 20 mph 1003.8mb 44f 69f
4:36pm 14 18 mph 1003.9mb 44f 70f
4:30pm 14 20 mph 1003.8mb 44f 70f
4:24pm 14 18 mph 1004mb 44f 70f
4:18pm 8 16 mph 1004.2mb 44f 69f
4:12pm 10 15 mph 1004.2mb 44f 68f
4:06pm 13 17 mph 1004.4mb 44f 68f
4:00pm 9 22 mph 1004.5mb 44f 67f
3:54pm 13 22 mph 1004.5mb 44f 67f
3:48pm 13 20 mph 1004.6mb 44f 67f
3:42pm 13 21 mph 1004.8mb 44f 67f
3:36pm 11 20 mph 1004.8mb 44f 67f
3:30pm 13 22 mph 1004.8mb 44f 67f
3:24pm 10 20 mph 1005mb 44f 67f
3:18pm 13 26 mph 1005mb 44f 67f
3:12pm 11 22 mph 1005.2mb 44f 67f
3:06pm 14 22 mph 1005.3mb 44f 68f
3:00pm 13 20 mph 1005.4mb 44f 67f
2:54pm 11 17 mph 1005.5mb 44f 67f
2:48pm 9 20 mph 1005.6mb 44f 68f
2:42pm 11 18 mph 1005.7mb 44f 68f
2:36pm 10 23 mph 1005.9mb 44f 68f
2:30pm 14 22 mph 1005.9mb 44f 68f
2:24pm 13 21 mph 1006.1mb 44f 68f
2:18pm 7 10 mph 1006.4mb 44f 64f
2:12pm 10 22 mph 1006.6mb 44f 63f
2:06pm 8 9 mph 1006.9mb 44f 61f
2:00pm 7 9 mph 1007.2mb 44f 60f
1:54pm 7 10 mph 1007.5mb 44f 59f
1:48pm 6 10 mph 1007.7mb 44f 59f
1:42pm 6 8 mph 1008mb 44f 59f
1:36pm 7 10 mph 1008.2mb 44f 59f
1:30pm 6 9 mph 1008.4mb 44f 59f
1:24pm 6 11 mph 1008.5mb 44f 59f
1:18pm 8 10 mph 1008.6mb 44f 58f
1:12pm 7 10 mph 1008.8mb 44f 58f
1:06pm 3 7 mph 1008.9mb 44f 58f
1:00pm 6 8 mph 1009mb 44f 57f
12:54pm 5 6 mph 1009mb 44f 56f
12:48pm 3 5 mph 1009.2mb 44f 52f
12:42pm 3 5 mph 1009.5mb 44f 50f
12:36pm 1 2 mph 1009.7mb 44f 53f
12:30pm 3 5 mph 1009.8mb 44f 52f
12:24pm 3
mph
1009.8mb 44f 51f
12:18pm 3 5 mph 1010mb 44f 52f
12:12pm 3 6 mph 1010.2mb 44f 52f
12:06pm 6
mph
1010.5mb 45f 52f
12:00pm 7 8 mph 1010.9mb 45f 51f
11:54am 8 9 mph 1011.3mb 45f 47f
11:48am 6 7 mph 1011.3mb 45f 48f
11:42am 5 6 mph 1011.2mb 45f 49f
11:36am 3 5 mph 1011.4mb 45f 51f
11:30am 2 3 mph 1011.4mb 45f 51f
11:24am  -  2 mph 1011.6mb 45f 53f
11:18am  -  3 mph 1012.1mb 45f 54f
11:12am 1 5 mph 1012.2mb 46f 53f
11:06am 2 5 mph 1012.3mb 46f 52f
11:00am 1 3 mph 1012.3mb 46f 51f
10:54am 5 7 mph 1012mb 46f 50f
10:48am 6 8 mph 1012.5mb 46f 50f
10:42am 5 8 mph 1013mb 46f 52f
10:36am 5 8 mph 1013.1mb 45f 53f
10:30am 7 8 mph 1012.5mb 45f 53f
10:24am 7 9 mph 1012.6mb 45f 53f
10:18am 8 10 mph 1012.7mb 45f 52f
10:12am 6 10 mph 1013mb 45f 52f
10:06am 9 11 mph 1013.1mb 45f 51f
10:00am 8 11 mph 1013.2mb 44f 51f
9:54am 7 10 mph 1013.4mb 44f 51f
9:48am 8 11 mph 1013.4mb 44f 51f
9:42am 8 10 mph 1013.4mb 44f 51f
9:36am 7 10 mph 1013.4mb 45f 51f
9:30am 8 10 mph 1013.5mb 45f 51f
9:24am 6 8 mph 1013.6mb 45f 50f
9:18am 6 8 mph 1013.6mb 44f 49f
9:12am 7 8 mph 1013.7mb 44f 49f
9:06am 5 9 mph 1013.9mb 43f 49f
9:00am 6 9 mph 1013.9mb 44f 49f
8:54am 3 6 mph 1014mb 44f 48f
8:48am 5 6 mph 1014mb 44f 47f
8:42am 5 6 mph 1014.2mb 44f 47f
8:36am 2 5 mph 1014.3mb 44f 46f
8:30am 2 5 mph 1014.4mb 43f 46f
8:24am 2 5 mph 1014.7mb 44f 45f
8:18am 5 7 mph 1014.9mb 44f 45f
8:12am 3 5 mph 1015.2mb 43f 45f
8:06am 3 6 mph 1015.1mb 43f 45f
8:00am 5 6 mph 1015.1mb 43f 44f
7:54am 3 6 mph 1015mb 43f 44f
7:48am 3 6 mph 1015.1mb 43f 44f
7:42am 3 5 mph 1015.1mb 43f 43f
7:36am 2 5 mph 1015.1mb 43f 43f
7:30am 3 6 mph 1015.2mb 43f 43f
7:24am 2 3 mph 1015.2mb 43f 42f
7:18am 1 2 mph 1015.4mb 43f 41f
7:12am 1 2 mph 1015.4mb 43f 41f
7:06am 2 3 mph 1015.3mb 43f 41f
7:00am  -  3 mph 1015.3mb 43f 41f
6:54am 2 3 mph 1015.4mb 43f 40f
6:48am 2 3 mph 1015.5mb 43f 40f
6:42am 2 3 mph 1015.6mb 43f 40f
6:36am 1 2 mph 1015.7mb 43f 40f
6:30am 1 2 mph 1015.7mb 43f 40f
6:24am 1 2 mph 1015.8mb 43f 40f
6:18am 2
mph
1015.8mb 43f 40f
6:12am 1 2 mph 1015.9mb 43f 40f
6:06am  -  1 mph 1015.9mb 43f 40f
6:00am  -  mph 1016mb 43f 40f
5:54am  -  mph 1016.1mb 43f 40f
5:48am  -  mph 1016.2mb 43f -
5:42am 1 2 mph 1016.3mb 43f -
5:36am  -  1 mph 1016.5mb 43f -
5:30am 1 2 mph 1016.6mb 43f 40f
5:24am 2
mph
1016.6mb 43f 40f
5:18am 2
mph
1016.7mb 43f 40f
5:12am 2 3 mph 1016.7mb 43f 39f
5:06am 2
mph
1016.7mb 43f 39f
5:00am 1
mph
1016.8mb 43f 40f
4:54am  -  1 mph 1017.1mb 43f 39f
4:48am  -  2 mph 1017.1mb 43f 39f
4:42am 2
mph
1017mb 43f 40f
4:36am  -  mph 1017.1mb 43f 40f
4:30am  -  1 mph 1017.1mb 43f 40f
4:24am  -  1 mph 1017.2mb 43f 40f
4:18am  -  1 mph 1017.3mb 43f 40f
4:12am  -  1 mph 1017.4mb 43f 40f
4:06am  -  mph 1017.5mb 43f 40f
4:00am  -  2 mph 1017.6mb 43f 41f
3:54am 2 3 mph 1017.5mb 43f 41f
3:48am  -  1 mph 1017.6mb 43f 41f
3:42am  -  1 mph 1017.8mb 43f 41f
3:36am  -  mph 1017.9mb 43f 41f
3:30am  -  mph 1017.9mb 43f 41f
3:24am  -  1 mph 1017.9mb 43f 41f
3:18am  -  1 mph 1017.9mb 43f 41f
3:12am  -  1 mph 1017.9mb 43f 41f
3:06am  -  2 mph 1018.1mb 43f 41f
3:00am 2 3 mph 1018.1mb 43f 41f
2:54am 2 3 mph 1018.2mb 43f 41f
2:48am 2 3 mph 1018.4mb 43f -
2:42am 2 3 mph 1018.5mb 43f -
2:36am 2 3 mph 1018.6mb 43f -
2:30am 3
mph
1018.5mb 43f 41f
2:24am 2
mph
1018.7mb 43f 41f
2:18am 1 2 mph 1018.9mb 43f 41f
2:12am 1 3 mph 1019mb 43f 41f
2:06am 2 3 mph 1019.3mb 43f 42f
2:00am 1 2 mph 1019.5mb 43f 41f
1:54am 1 3 mph 1019.6mb 43f 42f
1:48am 1 2 mph 1019.7mb 43f 41f
1:42am  -  2 mph 1019.5mb 44f 42f
1:36am 2
mph
1019.5mb 43f 42f
1:30am 2 3 mph 1019.5mb 43f 42f
1:24am  -  2 mph 1019.8mb 43f 42f
1:18am 2 3 mph 1019.9mb 44f 42f
1:12am 3
mph
1019.9mb 44f 41f
1:06am 2
mph
1020.1mb 44f 42f
1:00am 1 2 mph 1020.3mb 44f 42f
12:54am 2
mph
1020.5mb 44f 42f
12:48am  -  2 mph 1020.6mb 44f 42f
12:42am  -  mph 1020.6mb 44f 42f
12:36am  -  1 mph 1020.5mb 44f 42f
12:30am  -  mph 1020.6mb 44f 42f
12:24am  -  mph 1020.6mb 44f 42f
12:18am  -  1 mph 1020.7mb 44f 42f
12:12am  -  1 mph 1020.7mb 44f 42f
12:06am  -  1 mph 1020.7mb 45f 42f
12:00am  -  1 mph 1020.8mb 44f 42f
Wed 03/25 11:54pm  -  1 mph 1020.8mb 45f 42f
11:48pm  -  mph 1020.9mb 45f 42f
11:42pm  -  1 mph 1021mb 45f 42f
11:36pm  -  1 mph 1021.1mb 45f 42f
11:30pm  -  1 mph 1021.2mb 45f 42f
11:24pm 1
mph
1021.2mb 45f 42f
11:18pm 1
mph
1021.4mb 45f 42f
11:12pm  -  2 mph 1021.5mb 45f 42f
11:06pm 2 3 mph 1021.5mb 45f 42f
11:00pm 3
mph
1021.7mb 45f 42f
10:54pm 3 5 mph 1021.8mb 45f 42f
10:48pm 3 5 mph 1021.8mb 45f 42f
10:42pm 2 3 mph 1021.9mb 45f 42f
10:36pm 3
mph
1022.1mb 45f 42f
10:30pm 2 5 mph 1022.2mb 45f 42f
10:24pm 1 3 mph 1022.2mb 44f 42f
10:18pm 3 5 mph 1022.2mb 44f 42f
10:12pm 2 5 mph 1022.4mb 44f 42f
10:06pm 2 5 mph 1022.4mb 44f 42f
10:00pm 3 5 mph 1022.4mb 45f 42f
9:54pm 5 6 mph 1022.4mb 45f 42f
9:48pm 3 5 mph 1022.5mb 45f 42f
9:42pm 3 5 mph 1022.4mb 45f 42f
9:36pm 2 5 mph 1022.5mb 45f 42f
9:30pm 2 3 mph 1022.5mb 44f 42f
9:24pm 3
mph
1022.5mb 44f 42f
9:18pm 2
mph
1022.5mb 45f 42f
9:12pm 3
mph
1022.6mb 44f 42f
9:06pm 2 3 mph 1022.7mb 44f 42f
9:00pm 5
mph
1022.6mb 44f 42f
8:54pm 2 3 mph 1022.6mb 44f 41f
8:48pm 2
mph
1022.7mb 44f 41f
8:42pm 1 5 mph 1022.7mb 44f 42f
8:36pm 3 5 mph 1022.7mb 43f 42f
8:30pm 5
mph
1022.8mb 43f 41f
8:24pm 5 6 mph 1022.9mb 43f 42f
8:18pm 6
mph
1022.9mb 43f 42f
8:12pm 5 6 mph 1023.1mb 43f 42f
8:06pm 3 6 mph 1023.1mb 43f 42f
8:00pm 5
mph
1023.3mb 43f 42f
7:54pm 3
mph
1023.4mb 43f 42f
7:48pm 2
mph
1023.5mb 43f 43f
7:42pm 1 3 mph 1023.5mb 43f 43f
7:36pm 2 3 mph 1023.4mb 43f 43f
7:30pm 2 5 mph 1023.6mb 43f 43f
7:24pm 5 8 mph 1023.5mb 43f 43f
7:18pm 6 9 mph 1023.3mb 43f 43f
7:12pm 7 8 mph 1023.3mb 43f 43f
7:06pm 5 9 mph 1023.4mb 43f 43f
7:00pm 5 8 mph 1023.3mb 43f 43f
6:54pm 6 10 mph 1023.4mb 43f 43f
6:48pm 6 8 mph 1023.3mb 43f 43f
6:42pm 6 10 mph 1023.4mb 43f 43f
6:36pm 7 13 mph 1023.4mb 43f 43f
6:30pm 7 10 mph 1023.4mb 43f 43f
6:24pm 7 13 mph 1023.4mb 43f 43f
6:18pm 9 11 mph 1023.4mb 43f 43f
6:12pm 7 11 mph 1023.8mb 43f 43f
6:06pm 9 13 mph 1023.8mb 43f 43f
6:00pm 7 11 mph 1023.9mb 43f 43f
5:54pm 8 11 mph 1024mb 43f 43f
5:48pm 9 13 mph 1024mb 43f 42f
5:42pm 6 9 mph 1024.1mb 43f 42f
5:36pm 7 11 mph 1024.2mb 43f 42f
5:30pm 8 11 mph 1024.1mb 43f 42f
5:24pm 7 11 mph 1024.1mb 43f 42f
5:18pm 10 13 mph 1023.9mb 43f 42f
5:12pm 7 11 mph 1023.8mb 43f 42f
5:06pm 8 11 mph 1023.9mb 43f 42f
5:00pm 8 10 mph 1024.2mb 43f 42f
4:54pm 6 9 mph 1024.2mb 43f 43f
4:48pm 6 7 mph 1024.1mb 43f 43f
4:42pm 5 7 mph 1024.3mb 43f 43f
4:36pm 3 8 mph 1024.5mb 43f 43f
4:30pm 6 9 mph 1024.6mb 43f 42f
4:24pm 6 10 mph 1024.6mb 43f 42f
4:18pm 9 11 mph 1024.4mb 43f 42f
4:12pm 10 13 mph 1024.4mb 43f 42f
4:06pm 8 11 mph 1024.8mb 43f 42f
4:00pm 8 11 mph 1024.9mb 43f 42f
3:54pm 7 13 mph 1025.1mb 43f 42f
3:48pm 10 13 mph 1025.2mb 43f 41f
3:42pm 9 11 mph 1025.3mb 43f 41f
3:36pm 8 10 mph 1025.5mb 43f 41f
3:30pm 7 9 mph 1025.8mb 43f 41f
3:24pm 8 9 mph 1026.1mb 43f 41f
3:18pm 7 9 mph 1026.2mb 43f 41f
3:12pm 5 8 mph 1026.3mb 43f 40f
3:06pm 7 11 mph 1026.3mb 43f 40f
3:00pm 8 10 mph 1026.3mb 43f 40f
2:54pm 8 11 mph 1026.4mb 43f 40f
2:48pm 9 11 mph 1026.5mb 43f 40f
2:42pm 7 9 mph 1026.7mb 43f 40f
2:36pm 7 9 mph 1026.9mb 43f 40f
2:30pm 6 8 mph 1027.3mb 43f 40f
2:24pm 7 9 mph 1027.4mb 43f 40f
2:18pm 6 8 mph 1027.5mb 43f 40f
2:12pm 6 9 mph 1027.6mb 43f 39f
2:06pm 7 8 mph 1027.8mb 43f 39f
2:00pm 5 8 mph 1027.9mb 43f 39f
1:54pm 6 7 mph 1028mb 43f 39f
1:48pm 5 8 mph 1028mb 43f 39f
1:42pm 6 8 mph 1028mb 43f 39f
1:36pm 7 8 mph 1028.3mb 43f 39f
1:30pm 5 8 mph 1028.3mb 43f 38f
1:24pm 6 9 mph 1028.4mb 43f 38f
1:18pm 6 8 mph 1028.6mb 43f 38f
1:12pm 6 8 mph 1028.7mb 43f 38f
1:06pm 6 10 mph 1028.6mb 43f 38f
1:00pm 6 9 mph 1028.8mb 43f 38f
12:54pm 6 10 mph 1029.2mb 43f 38f
12:48pm 6 10 mph 1028.6mb 43f 38f
12:42pm 7 11 mph 1028.2mb 43f 38f
12:36pm 5 14 mph 1028.1mb 43f 38f
12:30pm 7 11 mph 1028mb 43f 38f
12:24pm 8 11 mph 1028.3mb 43f 38f
12:18pm 8 13 mph 1028.5mb 43f 38f
12:12pm 9 15 mph 1028.6mb 43f 38f
12:06pm 9 14 mph 1028.6mb 43f 39f
12:00pm 8 13 mph 1028.9mb 43f 39f
11:54am 9 14 mph 1029.1mb 44f 39f
11:48am 10 14 mph 1029.2mb 43f 39f
11:42am 10 15 mph 1029.3mb 43f 39f
11:36am 9 14 mph 1029.3mb 44f 39f
11:30am 9 14 mph 1029.4mb 44f 39f
11:24am 9 14 mph 1029.5mb 44f 40f
11:18am 9 15 mph 1029.6mb 44f 40f
11:12am 10 15 mph 1029.5mb 44f 40f
11:06am 9 11 mph 1029.6mb 44f 40f
11:00am 8 14 mph 1029.7mb 44f 40f
10:54am 9 13 mph 1029.7mb 44f 40f
10:48am 9 13 mph 1029.8mb 44f 41f
10:42am 7 10 mph 1029.9mb 44f 41f
10:36am 6 9 mph 1029.7mb 44f 39f
10:30am 7 8 mph 1029.6mb 44f 38f
10:24am 6 8 mph 1029.7mb 44f 38f
10:18am 3 5 mph 1029.8mb 44f 37f
10:12am 3
mph
1029.7mb 44f 37f
10:06am 3 5 mph 1029.7mb 44f 36f
10:00am 3 6 mph 1029.6mb 44f 36f
9:54am 5 6 mph 1029.7mb 44f 36f
9:48am 5
mph
1029.8mb 44f 36f
9:42am 3 5 mph 1029.8mb 44f 36f
9:36am 3
mph
1029.8mb 45f 36f
9:30am 2 3 mph 1029.8mb 45f 37f
9:24am 1 2 mph 1029.8mb 44f 37f
9:18am 2 3 mph 1029.8mb 44f 36f
9:12am 1 2 mph 1029.8mb 44f 36f
9:06am  -  2 mph 1029.9mb 44f 36f
9:00am 2
mph
1029.9mb 43f 35f
8:54am 1 3 mph 1030.1mb 43f 34f
8:48am 2 3 mph 1030.1mb 43f 34f
8:42am 2 3 mph 1030.1mb 44f 34f
8:36am 2 3 mph 1030mb 43f 34f
8:30am 1 3 mph 1030.1mb 43f 34f
8:24am 2 3 mph 1030.2mb 43f 33f
8:18am 3 5 mph 1030.3mb 44f 33f
8:12am 2 3 mph 1030.1mb 44f 33f
8:06am 2 3 mph 1029.9mb 43f 33f
8:00am 2 5 mph 1029.9mb 43f 33f
7:54am 2 3 mph 1029.9mb 43f 34f
7:48am 2 3 mph 1029.8mb 43f 34f
7:42am 1 2 mph 1029.8mb 42f 33f
7:36am 1 2 mph 1029.8mb 42f 32f
7:30am  -  1 mph 1029.8mb 42f 31f
7:24am 1 2 mph 1029.9mb 42f 30f
7:18am  -  2 mph 1029.9mb 42f 29f
7:12am 1
mph
1029.8mb 42f 30f
7:06am 1 2 mph 1029.7mb 42f 30f
7:00am  -  2 mph 1029.6mb 42f 31f
6:54am 1 5 mph 1029.4mb 42f 32f
6:48am 5 6 mph 1029.2mb 42f 33f
6:42am 3 5 mph 1029.1mb 42f 32f
6:36am 3 5 mph 1029.2mb 42f 32f
6:30am 5
mph
1029.1mb 42f 32f
6:24am 5
mph
1029.1mb 42f 33f
6:18am 3 5 mph 1029.2mb 42f 32f
6:12am 2 5 mph 1029.1mb 42f 33f
6:06am 3 6 mph 1029.1mb 43f 33f
6:00am 1 6 mph 1029mb 43f 33f
5:54am 3 6 mph 1029.1mb 43f 33f
5:48am 3 5 mph 1029.1mb 43f -
5:42am  -  1 mph 1029.1mb 43f -
5:36am  -  1 mph 1029.2mb 43f -
5:30am  -  mph 1029.3mb 43f 29f
5:24am  -  mph 1029.3mb 43f 29f
5:18am  -  mph 1029.3mb 43f 29f
5:12am  -  mph 1029.3mb 43f 28f
5:06am  -  mph 1029.3mb 42f 28f
5:00am  -  1 mph 1029.3mb 42f 28f
4:54am  -  1 mph 1029.3mb 42f 28f
4:48am  -  1 mph 1029.3mb 42f 28f
4:42am  -  1 mph 1029.3mb 42f 28f
4:36am  -  1 mph 1029.4mb 42f 27f
4:30am  -  mph 1029.4mb 43f 27f
4:24am  -  mph 1029.4mb 43f 28f
4:18am  -  mph 1029.5mb 43f 28f
4:12am  -  1 mph 1029.4mb 43f 28f
4:06am 1 2 mph 1029.4mb 43f 29f
4:00am 2
mph
1029.5mb 43f 29f
3:54am 1
mph
1029.5mb 43f 29f
3:48am 1
mph
1029.5mb 43f 29f
3:42am  -  2 mph 1029.6mb 43f 28f
3:36am  -  1 mph 1029.6mb 43f 28f
3:30am  -  1 mph 1029.6mb 43f 28f
3:24am  -  1 mph 1029.6mb 43f 28f
3:18am  -  1 mph 1029.6mb 43f 28f
3:12am  -  1 mph 1029.6mb 43f 28f
3:06am  -  2 mph 1029.7mb 43f 28f
3:00am  -  1 mph 1029.7mb 43f 29f
2:54am  -  1 mph 1029.7mb 43f 28f
2:48am  -  1 mph 1029.7mb 43f 28f
2:42am  -  2 mph 1029.7mb 43f 28f
2:36am 2 3 mph 1029.6mb 43f 28f
2:30am 2
mph
1029.8mb 43f 29f
2:24am  -  1 mph 1029.7mb 43f 29f
2:18am  -  1 mph 1029.7mb 43f 29f
2:12am 1 2 mph 1029.8mb 43f 30f
2:06am 1 2 mph 1029.8mb 43f 31f
2:00am 1
mph
1029.6mb 43f 29f
1:54am  -  2 mph 1029.7mb 43f 29f
1:48am 2
mph
1029.5mb 43f 31f
1:42am 2
mph
1029.5mb 43f 31f
1:36am 1 2 mph 1029.4mb 43f 30f
1:30am 1 2 mph 1029.4mb 43f 30f
1:24am 1
mph
1029.4mb 43f 30f
1:18am 1 2 mph 1029.4mb 43f 30f
1:12am 1 2 mph 1029.4mb 43f 30f
1:06am 1
mph
1029.3mb 43f 30f
1:00am  -  1 mph 1029.4mb 43f 30f
12:54am  -  1 mph 1029.5mb 43f 30f
12:48am 1
mph
1029.5mb 43f 31f
12:42am  -  mph 1029.5mb 43f 31f
12:36am  -  mph 1029.5mb 43f 30f
12:30am  -  mph 1029.5mb 43f 30f
12:24am  -  1 mph 1029.4mb 43f 31f
12:18am  -  mph 1029.4mb 43f 31f
12:12am  -  1 mph 1029.4mb 43f 31f
12:06am  -  mph 1029.4mb 43f 30f
12:00am  -  mph 1029.5mb 43f 31f
Tue 03/24 11:54pm  -  mph 1029.4mb 43f 31f
11:48pm  -  2 mph 1029.5mb 43f 32f
11:42pm 1 2 mph 1029.5mb 43f 32f
11:36pm  -  mph 1029.4mb 43f 31f
11:30pm  -  2 mph 1029.4mb 43f 32f
11:24pm 1 2 mph 1029.3mb 43f 32f
11:18pm 2 3 mph 1029.3mb 43f 33f
11:12pm 2 3 mph 1029.3mb 43f 33f
11:06pm 2 3 mph 1029.3mb 43f 34f
11:00pm 2 3 mph 1029.3mb 43f 34f
10:54pm 2 3 mph 1029.3mb 43f 34f
10:48pm 2 3 mph 1029.3mb 43f 33f
10:42pm 3 5 mph 1029.4mb 43f 33f
10:36pm 2 3 mph 1029.4mb 43f 34f
10:30pm 2 3 mph 1029.3mb 43f 34f
10:24pm 1 2 mph 1029.3mb 44f 33f
10:18pm 2 3 mph 1029.2mb 44f 33f
10:12pm 2
mph
1029.3mb 44f 33f
10:06pm 1 2 mph 1029.3mb 43f 34f
10:00pm 2 3 mph 1029.1mb 43f 34f
9:54pm 2 3 mph 1029.2mb 43f 34f
9:48pm 2 3 mph 1029.2mb 44f 34f
9:42pm 2 3 mph 1029.2mb 44f 34f
9:36pm 2 3 mph 1029.2mb 44f 34f
9:30pm 2 3 mph 1029.2mb 44f 34f
9:24pm 2 3 mph 1029.2mb 44f 34f
9:18pm 2 3 mph 1029.1mb 44f 35f
9:12pm 2 3 mph 1029.2mb 44f 35f
9:06pm 2
mph
1029.1mb 44f 35f
9:00pm 1 2 mph 1029.1mb 44f 35f
8:54pm 2
mph
1029.1mb 44f 35f
8:48pm 1 3 mph 1029mb 44f 35f
8:42pm 2 3 mph 1029mb 44f 35f
8:36pm 2 3 mph 1028.9mb 44f 35f
8:30pm 2 3 mph 1028.8mb 44f 35f
8:24pm 2 3 mph 1028.8mb 44f 35f
8:18pm 2 3 mph 1028.8mb 44f 35f
8:12pm 2 3 mph 1028.7mb 44f 36f
8:06pm 2 5 mph 1028.6mb 44f 36f
8:00pm 2 3 mph 1028.5mb 44f 35f
7:54pm 1 3 mph 1028.5mb 43f 35f
7:48pm 3
mph
1028.4mb 43f 35f
7:42pm 2 3 mph 1028.4mb 44f 35f
7:36pm 1 2 mph 1028.4mb 44f 35f
7:30pm 2 3 mph 1028.4mb 44f 36f
7:24pm 2 3 mph 1028.3mb 43f 36f
7:18pm 2 3 mph 1028.3mb 43f 36f
7:12pm 2 3 mph 1028.2mb 43f 36f
7:06pm 3 5 mph 1028.1mb 43f 37f
7:00pm 3 5 mph 1028mb 43f 37f
6:54pm 3 5 mph 1027.9mb 43f 38f
6:48pm 5 6 mph 1027.8mb 43f 38f
6:42pm 3 7 mph 1027.8mb 43f 38f
6:36pm 6 7 mph 1027.8mb 43f 38f
6:30pm 2 6 mph 1027.8mb 43f 39f
6:24pm 2 5 mph 1027.8mb 43f 40f
6:18pm 3 6 mph 1027.7mb 43f 40f
6:12pm 5 6 mph 1027.7mb 43f 39f
6:06pm 3 6 mph 1027.7mb 43f 40f
6:00pm 2 3 mph 1027.7mb 43f 40f
5:54pm 2 5 mph 1027.7mb 43f 39f
5:48pm 2 6 mph 1027.7mb 43f 40f
5:42pm 1 2 mph 1027.6mb 43f 39f
5:36pm  -  2 mph 1027.5mb 43f 38f
5:30pm 2 3 mph 1027.4mb 43f 38f
5:24pm  -  2 mph 1027.3mb 43f 38f
5:18pm 1 3 mph 1027.3mb 43f 37f
5:12pm 2 3 mph 1027.3mb 43f 37f
5:06pm 1 3 mph 1027.4mb 43f 37f
5:00pm  -  3 mph 1027.5mb 43f 37f
4:54pm 1 3 mph 1027.5mb 43f 37f
4:48pm 2 5 mph 1027.5mb 43f 38f
4:42pm 2 5 mph 1027.6mb 43f 38f
4:36pm 2 3 mph 1027.6mb 43f 37f
4:30pm 3 6 mph 1027.6mb 43f 36f
4:24pm 2 3 mph 1027.7mb 43f 37f
4:18pm 2 5 mph 1027.7mb 43f 36f
4:12pm 2 5 mph 1027.8mb 43f 36f
4:06pm 3 5 mph 1027.8mb 43f 36f
4:00pm 3 6 mph 1027.8mb 43f 36f
3:54pm 5 6 mph 1027.8mb 43f 36f
3:48pm 3 5 mph 1027.8mb 43f 36f
3:42pm 3 6 mph 1027.8mb 43f 35f
3:36pm 2 5 mph 1027.8mb 43f 35f
3:30pm 2 3 mph 1027.9mb 43f 35f
3:24pm 3 5 mph 1027.9mb 43f 35f
3:18pm 3 5 mph 1028.1mb 43f 35f
3:12pm 1 6 mph 1028mb 43f 35f
3:06pm 2 3 mph 1028mb 43f 34f
3:00pm  -  1 mph 1028.1mb 43f 34f
2:54pm 1 2 mph 1028mb 43f 34f
2:48pm 2 3 mph 1027.9mb 43f 34f
2:42pm 2 3 mph 1027.9mb 43f 34f
2:36pm 2 3 mph 1028mb 43f 34f
2:30pm 2 3 mph 1027.9mb 43f 34f
2:24pm  -  2 mph 1027.9mb 43f 34f
2:18pm  -  2 mph 1028mb 43f 34f
2:12pm 2 3 mph 1027.9mb 43f 34f
2:06pm  -  1 mph 1027.9mb 43f 34f
2:00pm  -  3 mph 1027.9mb 43f 34f
1:54pm 2 5 mph 1028.1mb 43f 34f
1:48pm 2 3 mph 1028.1mb 43f 34f
1:42pm 2 3 mph 1028mb 43f 33f
1:36pm 1 3 mph 1027.9mb 43f 33f
1:30pm 2 5 mph 1027.8mb 43f 34f
1:24pm 2 5 mph 1027.8mb 43f 33f
1:18pm  -  5 mph 1027.9mb 43f 34f
1:12pm 1 3 mph 1027.9mb 43f 33f
1:06pm 2 5 mph 1027.9mb 43f 33f
1:00pm 3 5 mph 1027.8mb 43f 33f
12:54pm 2 5 mph 1027.9mb 43f 33f
12:48pm 2 5 mph 1028mb 43f 33f
12:42pm 2 5 mph 1028mb 43f 33f
12:36pm 2 5 mph 1028.1mb 43f 33f
12:30pm 1 3 mph 1028.1mb 43f 33f
12:24pm 1 6 mph 1028.1mb 43f 33f
12:18pm 3 5 mph 1028.1mb 43f 33f
12:12pm 2 5 mph 1028.2mb 43f 33f
12:06pm 1 2 mph 1028.2mb 43f 33f
12:00pm  -  5 mph 1028.2mb 43f 33f
11:54am 2 5 mph 1028.3mb 43f 33f
11:48am  -  3 mph 1028.4mb 43f 33f
11:42am 2 3 mph 1028.3mb 43f 33f
11:36am 2 6 mph 1028.3mb 43f 33f
11:30am 2 5 mph 1028.4mb 43f 33f
11:24am 1 5 mph 1028.4mb 43f 33f
11:18am 2 5 mph 1028.3mb 43f 33f
11:12am 3 7 mph 1028.5mb 43f 33f
11:06am  -  3 mph 1028.6mb 43f 33f
11:00am 1 5 mph 1028.4mb 43f 33f
10:54am  -  5 mph 1028.3mb 43f 33f
10:48am 2 6 mph 1028.3mb 43f 33f
10:42am 1 6 mph 1028.3mb 44f 33f
10:36am 2 7 mph 1028.3mb 44f 33f
10:30am 7 8 mph 1028.2mb 44f 33f
10:24am 7 8 mph 1028.2mb 44f 33f
10:18am 3 7 mph 1028.2mb 44f 33f
10:12am 6 8 mph 1028.1mb 44f 33f
10:06am 6 8 mph 1027.9mb 44f 33f
10:00am 6 8 mph 1027.7mb 44f 33f
9:54am 3 9 mph 1027.7mb 43f 33f
9:48am 5 7 mph 1027.8mb 44f 33f
9:42am 2 6 mph 1027.7mb 44f 33f
9:36am 1 8 mph 1027.7mb 44f 33f
9:30am 2 8 mph 1027.6mb 44f 33f
9:24am 2 10 mph 1027.5mb 44f 33f
9:18am 6 10 mph 1027.4mb 44f 33f
9:12am 2 6 mph 1027.3mb 44f 33f
9:06am 2 9 mph 1027.3mb 44f 33f
9:00am 3 10 mph 1027.2mb 44f 33f
8:54am 2 9 mph 1027.2mb 43f 33f
8:48am 3 8 mph 1027.3mb 43f 33f
8:42am 5 8 mph 1027.1mb 43f 33f
8:36am 3 10 mph 1027.1mb 43f 33f
8:30am 2 9 mph 1027.1mb 43f 33f
8:24am 6 10 mph 1027.1mb 43f 33f
8:18am 6 8 mph 1027.1mb 43f 33f
8:12am 3 9 mph 1027.1mb 43f 33f
8:06am 7 10 mph 1026.9mb 43f 33f
8:00am 7 9 mph 1026.8mb 43f 33f
7:54am 7 9 mph 1026.9mb 44f 33f
7:48am 7 9 mph 1026.9mb 43f 33f
7:42am 7 9 mph 1026.8mb 43f 33f
7:36am 6 7 mph 1026.8mb 43f 33f
7:30am 3 7 mph 1026.8mb 43f 33f
7:24am 1 6 mph 1026.7mb 43f 33f
7:18am 1 6 mph 1026.5mb 43f 34f
7:12am 1 3 mph 1026.5mb 43f 34f
7:06am 1 5 mph 1026.4mb 43f 34f
7:00am 2 8 mph 1026.3mb 42f 34f
6:54am 2 6 mph 1026.3mb 43f 34f
6:48am 5 7 mph 1026.2mb 43f 34f
6:42am 2 7 mph 1026.1mb 43f 34f
6:36am 3 7 mph 1026.1mb 43f 34f
6:30am 2 8 mph 1026.1mb 43f 34f
6:24am 2 7 mph 1026.1mb 43f 34f
6:18am 2 8 mph 1026mb 43f 34f
6:12am  -  5 mph 1025.9mb 43f 34f
6:06am 3 6 mph 1025.9mb 43f 34f
6:00am 2 8 mph 1025.9mb 43f 34f
5:54am 3 6 mph 1025.9mb 43f 34f
5:48am 5 8 mph 1025.9mb 43f -
5:42am 2 5 mph 1025.8mb 43f -
5:36am 1 6 mph 1025.7mb 43f -
5:30am 3 7 mph 1025.7mb 43f 34f
5:24am 3 7 mph 1025.7mb 43f 34f
5:18am 5 8 mph 1025.6mb 43f 34f
5:12am 3 8 mph 1025.7mb 43f 34f
5:06am 5 8 mph 1025.7mb 43f 34f
5:00am 5 7 mph 1025.6mb 43f 34f
4:54am 5 8 mph 1025.7mb 43f 34f
4:48am 3 7 mph 1025.6mb 43f 35f
4:42am 5 7 mph 1025.5mb 43f 35f
4:36am 3 8 mph 1025.4mb 43f 35f
4:30am 3 8 mph 1025.4mb 43f 35f
4:24am 5 9 mph 1025.4mb 43f 35f
4:18am 6 9 mph 1025.4mb 43f 35f
4:12am 6 9 mph 1025.3mb 43f 35f
4:06am 3 9 mph 1025.3mb 43f 35f
4:00am 5 8 mph 1025.2mb 43f 35f
3:54am 1 5 mph 1025.2mb 43f 35f
3:48am 2 6 mph 1025.1mb 43f 35f
3:42am 2 5 mph 1025.1mb 43f 35f
3:36am 3 5 mph 1025.1mb 43f 35f
3:30am 1 7 mph 1025.2mb 43f 35f
3:24am 2 5 mph 1025.1mb 43f 35f
3:18am 2 5 mph 1025.1mb 43f 35f
3:12am 1 5 mph 1025.1mb 43f 35f
3:06am 1 5 mph 1025.2mb 43f 35f
3:00am 1 5 mph 1025.3mb 43f 36f
2:54am 2 7 mph 1025.4mb 43f 36f
2:48am 5 7 mph 1025.4mb 43f 36f
2:42am 5 8 mph 1025.4mb 43f 36f
2:36am 5 7 mph 1025.3mb 43f 36f
2:30am 5 7 mph 1025.3mb 43f 36f
2:24am 5 9 mph 1025.2mb 43f 36f
2:18am 5 9 mph 1025.3mb 43f 36f
2:12am 5 9 mph 1025.4mb 43f 36f
2:06am 5 9 mph 1025.4mb 43f 36f
2:00am 6 10 mph 1025.3mb 43f 36f
1:54am 6 9 mph 1025.3mb 43f 36f
1:48am 1 8 mph 1025.2mb 43f 36f
1:42am 2 5 mph 1025.1mb 43f 36f
1:36am 2 5 mph 1025.1mb 43f 36f
1:30am 1 7 mph 1025.1mb 43f 36f
1:24am 1 5 mph 1025mb 43f 37f
1:18am 2 5 mph 1024.9mb 43f 37f
1:12am 1 5 mph 1024.6mb 43f 37f
1:06am 2 8 mph 1024.7mb 43f 37f
1:00am 2 6 mph 1024.6mb 43f 37f
12:54am 2 5 mph 1024.6mb 43f 37f
12:48am 2 5 mph 1024.6mb 43f 37f
12:42am 2 5 mph 1024.6mb 43f 37f
12:36am 3 8 mph 1024.7mb 43f 37f
12:30am 3 7 mph 1024.7mb 43f 37f
12:24am 2 7 mph 1024.8mb 43f 37f
12:18am 2 7 mph 1024.6mb 43f 37f
12:12am 2 6 mph 1024.5mb 44f 37f
12:06am 2 6 mph 1024.4mb 44f 37f
12:00am 2 6 mph 1024.4mb 44f 37f
Mon 03/23 11:54pm 2 6 mph 1024.5mb 43f 37f
11:48pm 2 6 mph 1024.5mb 43f 37f
11:42pm 3 11 mph 1024.5mb 44f 37f
11:36pm 2 8 mph 1024.6mb 44f 38f
11:30pm 2 5 mph 1024.7mb 44f 38f
11:24pm 2 6 mph 1024.7mb 44f 38f
11:18pm 3 9 mph 1024.6mb 44f 38f
11:12pm 2 8 mph 1024.4mb 44f 38f
11:06pm 1 6 mph 1024.4mb 44f 38f
11:00pm 2 9 mph 1024.5mb 44f 38f
10:54pm 3 8 mph 1024.5mb 44f 38f
10:48pm 3 8 mph 1024.3mb 44f 38f
10:42pm 3 7 mph 1024.3mb 44f 39f
10:36pm 5 9 mph 1024.2mb 44f 39f
10:30pm 2 7 mph 1024.1mb 44f 39f
10:24pm 3 9 mph 1024.1mb 44f 39f
10:18pm 5 10 mph 1024.1mb 45f 39f
10:12pm 7 10 mph 1024.2mb 45f 39f
10:06pm 7 9 mph 1024.2mb 44f 38f
10:00pm 8 9 mph 1024mb 45f 39f
9:54pm 8 9 mph 1024.1mb 45f 39f
9:48pm 6 9 mph 1024mb 45f 39f
9:42pm 5 7 mph 1023.9mb 44f 38f
9:36pm 3 8 mph 1023.9mb 45f 37f
9:30pm 5 7 mph 1023.9mb 45f 37f
9:24pm 3 6 mph 1023.9mb 45f 37f
9:18pm 5 6 mph 1023.8mb 45f 37f
9:12pm 3 6 mph 1023.7mb 45f 37f
9:06pm 3 5 mph 1023.6mb 45f 37f
9:00pm 3 5 mph 1023.6mb 45f 37f
8:54pm 3 6 mph 1023.6mb 45f 37f
8:48pm 5 6 mph 1023.7mb 45f 37f
8:42pm 5 6 mph 1023.7mb 45f 37f
8:36pm 5 6 mph 1023.6mb 45f 37f
8:30pm 5 6 mph 1023.6mb 44f 37f
8:24pm 5 6 mph 1023.6mb 45f 38f
8:18pm 5 7 mph 1023.7mb 44f 38f
8:12pm 6 8 mph 1023.7mb 45f 38f
8:06pm 6 7 mph 1023.7mb 45f 38f
8:00pm 6 7 mph 1023.6mb 45f 38f
7:54pm 6 8 mph 1023.5mb 45f 38f
7:48pm 6 8 mph 1023.4mb 45f 38f
7:42pm 7 9 mph 1023.4mb 45f 39f
7:36pm 6 10 mph 1023.3mb 45f 39f
7:30pm 7 10 mph 1023.2mb 46f 39f
7:24pm 6 9 mph 1023.1mb 45f 40f
7:18pm 7 11 mph 1023.1mb 45f 39f
7:12pm 10 14 mph 1023.1mb 45f 40f
7:06pm 9 13 mph 1023mb 46f 40f
7:00pm 8 13 mph 1022.8mb 46f 40f
6:54pm 9 14 mph 1022.7mb 46f 41f
6:48pm 10 13 mph 1022.6mb 45f 41f
6:42pm 10 14 mph 1022.5mb 45f 41f
6:36pm 10 14 mph 1022.4mb 45f 41f
6:30pm 8 11 mph 1022.4mb 45f 41f
6:24pm 9 14 mph 1022.4mb 45f 41f
6:18pm 10 14 mph 1022.4mb 44f 41f
6:12pm 10 14 mph 1022.3mb 44f 41f
6:06pm 11 15 mph 1022.2mb 44f 41f
6:00pm 7 14 mph 1022.2mb 44f 41f
5:54pm 9 13 mph 1022.2mb 44f 41f
5:48pm 8 14 mph 1022.3mb 44f 41f
5:42pm 11 14 mph 1022.2mb 45f 41f
5:36pm 10 15 mph 1022.2mb 46f 41f
5:30pm 6 13 mph 1022.2mb 46f 41f
5:24pm 13 15 mph 1022.3mb 45f 40f
5:18pm 9 14 mph 1022.3mb 44f 40f
5:12pm 8 14 mph 1022.3mb 44f 41f
5:06pm 9 14 mph 1022.4mb 44f 40f
5:00pm 8 13 mph 1022.4mb 44f 40f
4:54pm 7 14 mph 1022.3mb 44f 40f
4:48pm 10 17 mph 1022.4mb 44f 40f
4:42pm 14 18 mph 1022.4mb 43f 39f
4:36pm 13 17 mph 1022.4mb 43f 40f
4:30pm 9 14 mph 1022.5mb 43f 39f
4:24pm 9 14 mph 1022.5mb 44f 39f
4:18pm 13 14 mph 1022.4mb 44f 39f
4:12pm 6 15 mph 1022.5mb 44f 39f
4:06pm 8 11 mph 1022.6mb 44f 39f
4:00pm 11 14 mph 1022.7mb 43f 39f
3:54pm 6 10 mph 1022.8mb 43f 39f
3:48pm 10 16 mph 1022.9mb 43f 38f
3:42pm 13 16 mph 1023mb 43f 38f
3:36pm 13 17 mph 1023.1mb 43f 38f
3:30pm 13 16 mph 1023.1mb 43f 38f
3:24pm 10 14 mph 1023.2mb 43f 38f
3:18pm 13 18 mph 1023.2mb 43f 38f
3:12pm 14 17 mph 1023.2mb 43f 38f
3:06pm 8 16 mph 1023.3mb 43f 38f
3:00pm 10 14 mph 1023.4mb 44f 38f
2:54pm 8 13 mph 1023.4mb 43f 38f
2:48pm 8 17 mph 1023.6mb 43f 37f
2:42pm 10 14 mph 1023.6mb 43f 37f
2:36pm 5 14 mph 1023.6mb 43f 38f
2:30pm 9 13 mph 1023.6mb 43f 37f
2:24pm 7 15 mph 1023.7mb 43f 37f
2:18pm 10 14 mph 1023.8mb 43f 37f
2:12pm 7 10 mph 1023.9mb 43f 37f
2:06pm 6 10 mph 1024mb 43f 36f
2:00pm 7 13 mph 1024.1mb 43f 36f
1:54pm 8 15 mph 1024.2mb 43f 36f
1:48pm 7 11 mph 1024.2mb 43f 36f
1:42pm 7 10 mph 1024.3mb 43f 36f
1:36pm 6 9 mph 1024.4mb 43f 35f
1:30pm 9 14 mph 1024.5mb 43f 35f
1:24pm 8 13 mph 1024.6mb 43f 35f
1:18pm 2 6 mph 1024.6mb 43f 35f
1:12pm 6
mph
1024.8mb 44f 34f
1:06pm 3 6 mph 1024.9mb 43f 34f
1:00pm 5 8 mph 1025mb 43f 34f
12:54pm 5 6 mph 1025mb 43f 34f
12:48pm 5 6 mph 1025mb 43f 33f
12:42pm 5 6 mph 1025mb 43f 33f
12:36pm 5 6 mph 1025.1mb 43f 33f
12:30pm 3 5 mph 1025.1mb 43f 33f
12:24pm 3 6 mph 1025.2mb 43f 32f
12:18pm 3 5 mph 1025.3mb 43f 32f
12:12pm 3 8 mph 1025.3mb 43f 32f
12:06pm 3 6 mph 1025.4mb 43f 32f
12:00pm 3 5 mph 1025.5mb 43f 31f
11:54am 3 6 mph 1025.6mb 43f 31f
11:48am 5 6 mph 1025.6mb 43f 31f
11:42am 5 10 mph 1025.6mb 43f 31f
11:36am 6 8 mph 1025.7mb 43f 31f
11:30am 5 8 mph 1025.9mb 42f 31f
11:24am 5 6 mph 1026mb 42f 31f
11:18am 6 7 mph 1026mb 42f 30f
11:12am 6 7 mph 1026.1mb 42f 30f
11:06am 5 7 mph 1026.1mb 42f 30f
11:00am 5 7 mph 1026.1mb 43f 30f
10:54am  -  6 mph 1026.2mb 42f 30f
10:48am 5 6 mph 1026.3mb 42f 30f
10:42am 3 5 mph 1026.3mb 42f 30f
10:36am 5 6 mph 1026.2mb 42f 30f
10:30am 2 3 mph 1026.2mb 42f 30f
10:24am 2 6 mph 1026.3mb 42f 30f
10:18am 5 6 mph 1026.4mb 42f 29f
10:12am 3 6 mph 1026.3mb 42f 29f
10:06am 1 3 mph 1026.3mb 43f 29f
10:00am 3 6 mph 1026.3mb 43f 29f
9:54am 6 8 mph 1026.3mb 43f 29f
9:48am 8 9 mph 1026.2mb 44f 29f
9:42am 5 7 mph 1026.1mb 44f 29f
9:36am 5 10 mph 1026.1mb 44f 29f
9:30am 8 10 mph 1026mb 44f 29f
9:24am 6 10 mph 1026.1mb 44f 29f
9:18am 7 10 mph 1026mb 44f 29f
9:12am 8 14 mph 1026mb 44f 28f
9:06am 9 13 mph 1025.9mb 44f 28f
9:00am 9 13 mph 1025.9mb 44f 28f
8:54am 11 14 mph 1025.9mb 44f 28f
8:48am 10 14 mph 1025.9mb 44f 28f
8:42am 11 15 mph 1025.8mb 44f 28f
8:36am 13 15 mph 1025.8mb 44f 28f
8:30am 9 13 mph 1025.8mb 44f 29f
8:24am 11 14 mph 1025.9mb 44f 28f
8:18am 9 14 mph 1025.8mb 44f 29f
8:12am 11 14 mph 1025.7mb 44f 28f
8:06am 10 14 mph 1025.6mb 44f 29f
8:00am 11 15 mph 1025.5mb 44f 29f
7:54am 9 14 mph 1025.5mb 44f 29f
7:48am 10 14 mph 1025.5mb 44f 28f
7:42am 11 14 mph 1025.3mb 44f 29f
7:36am 10 14 mph 1025.3mb 44f 29f
7:30am 8 11 mph 1025.2mb 44f 29f
7:24am 10 14 mph 1025.1mb 44f 29f
7:18am 10 13 mph 1025mb 44f 29f
7:12am 10 16 mph 1025mb 44f 29f
7:06am 11 14 mph 1024.9mb 44f 29f
7:00am 11 14 mph 1024.9mb 44f 29f
6:54am 11 14 mph 1024.8mb 44f 29f
6:48am 11 16 mph 1024.7mb 44f 29f
6:42am 13 17 mph 1024.7mb 44f 29f
6:36am 14 17 mph 1024.6mb 44f 29f
6:30am 14 16 mph 1024.5mb 44f 29f
6:24am 14 16 mph 1024.5mb 44f 29f
6:18am 14 18 mph 1024.4mb 44f 29f
6:12am 14 16 mph 1024.4mb 44f 29f
6:06am 13 16 mph 1024.4mb 44f 29f
6:00am 14 16 mph 1024.4mb 44f 29f
5:54am 14 17 mph 1024.3mb 43f 30f
5:48am 14 16 mph 1024.3mb 43f 30f
5:42am 14 17 mph 1024.2mb 43f 30f
5:36am 10 14 mph 1024.1mb 43f 30f
5:30am 11 14 mph 1024mb 42f 29f
5:24am 9 11 mph 1024mb 42f 30f
5:18am 9 11 mph 1024mb 42f 30f
5:12am 8 10 mph 1023.9mb 42f 30f
5:06am 8 10 mph 1023.9mb 42f 30f
5:00am 8 10 mph 1023.8mb 42f 30f
4:54am 10 11 mph 1023.7mb 42f 30f
4:48am 10 13 mph 1023.6mb 42f 30f
4:42am 9 11 mph 1023.5mb 42f 31f
4:36am 9 13 mph 1023.4mb 42f 31f
4:30am 9 11 mph 1023.4mb 42f 31f
4:24am 9 11 mph 1023.4mb 42f 31f
4:18am 10 13 mph 1023.3mb 42f 31f
4:12am 9 13 mph 1023.2mb 42f 31f
4:06am 9 14 mph 1023.1mb 42f 32f
4:00am 11 15 mph 1023.1mb 42f 32f
3:54am 10 14 mph 1023mb 42f 32f
3:48am 11 15 mph 1023mb 42f 32f
3:42am 9 16 mph 1022.9mb 42f 32f
3:36am 16 20 mph 1022.9mb 42f 33f
3:30am 18 22 mph 1023mb 42f 33f
3:24am 18 21 mph 1022.9mb 42f 33f
3:18am 20 23 mph 1022.9mb 42f 33f
3:12am 17 23 mph 1022.9mb 42f 33f
3:06am 10 14 mph 1022.8mb 42f 33f
3:00am 11 18 mph 1022.7mb 42f 33f
2:54am 17 22 mph 1022.7mb 42f 34f
2:48am 18 21 mph 1022.7mb 42f 34f
2:42am 13 15 mph 1022.6mb 42f 33f
2:36am 11 14 mph 1022.5mb 42f 33f
2:30am 13 14 mph 1022.4mb 43f 34f
2:24am 14 17 mph 1022.3mb 43f 34f
2:18am 14 16 mph 1022.4mb 43f 34f
2:12am 14 15 mph 1022.3mb 43f 34f
2:06am 14 20 mph 1022.4mb 43f 34f
2:00am 11 14 mph 1022.3mb 43f 34f
1:54am 13 18 mph 1022.2mb 43f 35f
1:48am 14 16 mph 1022.1mb 43f 35f
1:42am 14 16 mph 1022.1mb 43f 35f
1:36am 11 15 mph 1022mb 43f 35f
1:30am 11 18 mph 1022mb 43f 35f
1:24am 14 21 mph 1021.9mb 43f 36f
1:18am 16 18 mph 1021.8mb 43f 37f
1:12am 14 16 mph 1021.6mb 43f 39f
1:06am 14 16 mph 1021.5mb 43f 39f
1:00am 13 14 mph 1021.6mb 43f 39f
12:54am 10 14 mph 1021.6mb 43f 39f
12:48am 11 14 mph 1021.5mb 43f 39f
12:42am 13 15 mph 1021.4mb 43f 40f
12:36am 13 16 mph 1021.3mb 43f 40f
12:30am 11 14 mph 1021.2mb 43f 40f
12:24am 10 13 mph 1021.1mb 43f 40f
12:18am 10 13 mph 1021mb 43f 40f
12:12am 9 11 mph 1020.9mb 43f 40f
12:06am 9 11 mph 1020.8mb 43f 40f
12:00am 10 13 mph 1020.7mb 43f 40f